Location: Leipzig
(51.3203°N, 12.3761°E)
Time: 07:09:41
(UTC+01:00)

ISS - Pass Details

Date: 05 December 2021
Orbit: 413 x 422 km, 51.6° (Epoch: 22 January)

Event Time Altitude Azimuth Distance (km) Brightness Sun altitude
Rises 18:39:58 0° 282° (WNW) 2,384 1.3 -23.3°
Reaches altitude 10° 18:42:33 10° 262° (W) 1,512 0.2 -23.7°
Maximum altitude 18:44:52 17° 218° (SW) 1,138 -1.1 -24.0°
Enters shadow 18:45:55 15° 195° (SSW) 1,220 -1.2 -24.2°
